This is the latest recevied weather packets stored in our database for station/object K5IDL. If no packets are shown the sender has not sent any weather packets the latest 10 day(s).
| Time | Temp. | Humidity | Pressure | Rain* | Wind** | Luminosity | Snow |
|---|---|---|---|---|---|---|---|
| 1788721606 | 36.11° C | 47% | 1014.3 hPa | 0 mm | - | 68 W/m² | - |
| 1788721301 | 36.67° C | 47% | 1014.5 hPa | 0 mm | - | 58 W/m² | - |
| 1788721000 | 36.67° C | 45% | 1014.4 hPa | 0 mm | - | 59 W/m² | - |
| 1788720699 | 36.11° C | 48% | 1014.5 hPa | 0 mm | - | 72 W/m² | - |
| 1788720394 | 36.11° C | 47% | 1014.8 hPa | 0 mm | - | 74 W/m² | - |
| 1788720090 | 35.56° C | 47% | 1014.4 hPa | 0 mm | - | 517 W/m² | - |
| 1788719786 | 35.56° C | 48% | 1014.5 hPa | 0 mm | - | 485 W/m² | - |
| 1788719481 | 36.67° C | 47% | 1014.6 hPa | 0 mm | - | 421 W/m² | - |
| 1788719176 | 36.67° C | 47% | 1014.8 hPa | 0 mm | - | 322 W/m² | - |
| 1788718872 | 37.22° C | 46% | 1014.7 hPa | 0 mm | - | 646 W/m² | - |
| 1788718567 | 36.11° C | 48% | 1014.8 hPa | 0 mm | - | 653 W/m² | - |
| 1788718263 | 36.11° C | 48% | 1014.9 hPa | 0 mm | - | 658 W/m² | - |
| 1788717963 | 35.56° C | 50% | 1014.9 hPa | 0 mm | - | 668 W/m² | - |
| 1788717682 | 36.67° C | 48% | 1015 hPa | 0 mm | - | 659 W/m² | - |
| 1788717361 | 37.22° C | 47% | 1015.2 hPa | 0 mm | - | 656 W/m² | - |
| 1788717056 | 36.67° C | 50% | 1015.4 hPa | 0 mm | - | 662 W/m² | - |
| 1788716754 | 36.11° C | 49% | 1015.2 hPa | 0 mm | - | 662 W/m² | - |
| 1788716449 | 36.11° C | 49% | 1015.2 hPa | 0 mm | - | 646 W/m² | - |
| 1788716144 | 35.56° C | 51% | 1015.3 hPa | 0 mm | - | 641 W/m² | - |
| 1788715840 | 35.56° C | 50% | 1015.3 hPa | 0 mm | - | 630 W/m² | - |
| 1788715534 | 36.67° C | 48% | 1015.5 hPa | 0 mm | - | 629 W/m² | - |
| 1788715230 | 36.11° C | 48% | 1015.7 hPa | 0 mm | - | 625 W/m² | - |
| 1788714924 | 36.11° C | 50% | 1015.6 hPa | 0 mm | - | 613 W/m² | - |
| 1788714620 | 36.67° C | 49% | 1015.8 hPa | 0 mm | - | 612 W/m² | - |
| 1788714316 | 36.11° C | 51% | 1015.7 hPa | 0 mm | - | 602 W/m² | - |
* Rain latest hour (hover to see other rain measurements)
** Current wind speed in m/s (hover to see current wind gust speed)